GFSGL_925_thetae_000.txt.gz
Theta_e
295 294 293 293 292 291 291 291 291 290 290 289 288 286 285 285 284 283 283 282 283 282 281 280 279 278 278 276 275 275 275 275 276 277 278 276 275 275 275 275 274 274 275
296 294 293 292 291 291 291 290 290 289 289 289 287 286 285 284 283 282 282 281 282 281 280 279 278 276 276 275 274 274 273 273 273 274 274 274 274 274 274 274 274 274 275
294 294 292 292 291 290 290 290 289 288 289 287 287 286 284 283 282 282 281 281 281 280 279 278 277 275 274 273 273 272 272 272 272 272 273 273 273 273 274 274 274 275 275
294 294 292 291 291 290 289 288 288 288 288 287 285 285 284 283 282 280 280 280 280 279 278 276 275 274 274 273 272 272 272 271 271 272 272 273 273 274 275 275 276 277 277
294 292 291 291 290 289 287 287 287 287 287 286 285 284 283 282 280 280 279 280 279 277 276 275 275 273 273 273 272 272 273 273 272 272 273 274 275 276 277 276 276 276 276
292 291 291 289 289 287 286 285 285 285 285 284 283 282 281 280 280 279 280 279 277 277 276 275 273 273 273 274 275 275 276 275 275 275 276 277 276 276 276 277 277 276 276
292 291 290 289 287 285 284 283 283 283 282 281 280 280 279 279 279 278 277 278 277 276 275 273 273 273 273 273 273 275 275 276 276 276 276 276 276 276 276 276 276 276 276
291 290 288 287 285 283 282 281 281 281 280 279 278 278 279 279 279 280 278 278 277 275 274 273 273 273 273 273 274 274 274 274 275 275 276 276 276 276 276 277 277 277 277
289 288 287 285 283 281 280 280 279 278 278 277 277 277 277 278 279 280 279 276 275 274 274 273 273 273 273 275 275 275 275 275 276 276 275 275 276 276 275 274 274 274 275
288 287 285 283 282 280 279 278 278 278 277 276 275 276 277 277 278 279 278 276 274 274 274 274 274 274 275 276 276 276 276 275 274 274 274 273 271 270 271 272 272 272 273
288 287 284 283 281 280 279 277 276 276 275 275 274 274 275 276 277 278 278 275 274 274 274 274 274 274 275 275 277 276 275 275 275 272 271 269 269 269 270 271 271 272 273
287 285 282 280 279 278 277 275 275 274 274 273 273 272 273 274 276 277 277 276 275 274 274 274 273 274 275 275 275 273 273 274 271 269 267 268 269 269 270 271 271 271 271
284 281 279 278 277 276 275 273 273 273 273 272 272 272 271 272 273 276 277 278 276 275 274 274 274 273 272 272 271 271 270 269 267 267 267 268 269 269 269 269 271 271 271
282 279 277 276 274 274 274 273 273 273 273 273 273 273 272 271 272 275 276 277 276 275 274 273 272 271 269 269 269 268 267 267 267 267 267 268 268 268 269 269 271 271 271
279 277 275 274 273 273 273 273 273 273 274 273 274 273 273 272 272 274 274 274 275 273 272 271 269 268 268 267 267 267 266 266 266 267 267 267 267 268 268 269 270 272 271
278 276 274 274 272 272 272 272 274 274 274 275 275 274 273 274 273 274 274 274 274 272 270 268 267 266 265 265 265 266 266 266 266 266 266 266 267 267 268 268 271 271 271
279 277 275 274 272 272 272 271 272 274 274 276 276 275 274 274 275 276 276 276 274 270 269 266 266 265 264 264 264 264 264 265 265 264 265 265 266 266 267 269 271 270 270
279 278 275 273 272 272 272 272 273 273 275 276 276 275 275 276 277 277 275 273 270 266 267 266 265 264 264 263 263 264 264 264 263 263 264 264 265 267 267 270 270 270 269
278 277 274 272 271 271 272 272 273 274 275 275 275 276 276 277 277 275 271 269 267 266 266 265 265 264 264 263 263 264 263 264 263 262 263 264 266 266 268 269 269 269 269
278 276 273 272 271 271 272 273 274 274 275 274 274 275 275 276 272 269 268 266 266 266 265 265 264 264 264 264 264 264 264 265 263 262 263 264 266 266 269 268 269 269 269
277 274 272 271 271 271 272 273 273 273 273 274 272 271 273 270 266 266 265 265 265 265 264 265 265 265 264 264 264 264 264 264 264 262 263 264 265 268 268 268 268 268 268
274 271 271 271 271 271 271 272 271 271 271 268 269 272 271 269 267 265 264 264 264 264 265 265 265 264 264 264 264 265 264 264 264 263 263 264 266 268 267 267 267 268 268
271 270 270 270 270 270 270 269 269 269 268 268 269 270 266 265 264 264 263 263 264 264 264 264 264 265 264 264 265 264 264 266 266 265 263 263 267 267 267 266 267 267 268
269 269 268 269 269 269 269 268 268 267 267 267 266 264 263 263 263 263 263 263 263 263 263 263 263 263 264 265 265 266 266 267 267 267 266 266 267 267 266 266 266 267 267
267 267 267 267 267 266 266 266 265 266 265 264 262 262 262 262 262 262 262 262 262 263 263 262 262 262 263 264 265 266 266 267 268 268 268 268 267 266 266 266 266 266 267
265 265 265 264 264 264 264 263 263 263 262 261 261 261 261 261 262 262 262 262 262 262 262 262 262 262 262 264 265 266 267 267 268 268 268 267 267 266 265 265 265 266 266

GFSGL_925_thetae_003.txt.gz
Theta_e
297 296 295 295 295 293 293 293 292 291 291 290 290 289 288 287 286 286 285 284 283 282 282 282 281 281 280 279 278 277 276 276 276 277 278 278 277 276 276 276 276 276 276
297 295 295 294 293 292 293 293 292 291 290 291 290 289 287 287 286 285 285 283 283 282 281 281 280 280 279 278 277 276 275 275 274 274 275 276 275 275 275 275 276 276 276
296 295 294 293 293 293 292 291 290 290 290 289 289 288 287 286 285 285 284 283 282 282 281 281 280 279 278 277 276 275 274 274 273 273 273 274 274 274 275 276 276 277 277
297 295 294 293 294 293 291 290 290 289 289 289 289 288 286 285 285 284 283 282 282 281 281 280 279 279 278 277 275 274 274 273 273 273 273 274 274 275 276 277 277 276 277
297 294 294 294 293 292 291 290 289 288 288 288 287 285 284 284 284 284 282 282 281 280 279 279 278 278 277 276 276 274 273 273 273 273 273 275 276 277 276 276 277 276 276
296 295 295 293 292 291 290 289 288 287 286 286 285 284 282 282 282 282 282 281 280 279 278 276 276 275 275 275 274 274 275 275 274 273 274 277 276 277 276 276 276 276 277
293 295 294 293 292 290 289 287 285 284 283 284 283 282 281 281 281 281 280 281 280 278 277 276 275 275 275 275 276 276 277 277 278 277 277 276 276 276 276 276 276 277 277
291 292 293 292 290 289 287 285 284 283 283 282 281 281 280 280 281 281 279 279 278 278 277 276 275 274 274 273 273 273 274 275 275 275 275 276 276 276 277 277 276 274 273
290 288 289 289 288 286 284 283 282 282 281 281 280 279 279 278 281 282 280 277 276 276 275 275 275 274 274 275 274 274 274 275 275 276 277 277 276 277 276 274 272 271 272
287 289 289 288 287 284 283 282 281 281 280 279 278 278 278 278 281 282 279 276 275 275 275 274 274 274 274 275 275 275 275 275 276 275 275 274 274 273 272 271 270 270 271
290 286 287 286 285 283 282 281 280 279 278 277 277 276 277 278 280 282 281 277 276 275 274 274 274 275 275 277 277 276 276 276 276 275 274 273 272 271 271 270 270 270 271
289 289 284 284 283 281 280 279 278 277 276 275 275 274 274 275 279 282 282 277 276 275 274 274 274 276 276 276 277 276 275 275 274 273 270 270 269 269 269 270 270 270 270
287 286 286 282 280 280 279 277 276 275 275 274 274 274 273 273 276 281 282 279 277 274 274 274 275 275 276 276 274 272 272 272 270 269 268 268 268 268 269 269 269 269 269
282 284 283 281 279 277 277 276 275 274 275 275 275 274 273 273 274 279 280 281 277 275 275 276 275 274 273 271 271 270 270 269 268 267 267 267 267 267 268 268 268 269 269
277 281 281 279 278 276 275 275 275 276 276 276 275 275 274 273 273 277 278 279 277 276 275 273 271 271 269 269 269 269 268 268 267 267 266 266 266 267 267 267 267 268 268
274 276 280 278 276 275 275 274 276 276 276 277 277 276 275 276 275 277 278 279 276 274 273 270 269 269 268 268 268 267 267 267 266 266 266 265 266 266 266 266 266 268 268
271 273 277 278 277 275 274 274 274 276 277 277 278 278 276 276 276 278 279 278 277 273 270 270 268 268 267 267 266 266 266 266 265 265 265 265 265 264 265 265 266 267 268
269 271 274 279 276 275 274 274 274 275 277 277 278 278 278 277 277 278 278 278 277 270 270 268 267 267 266 266 266 265 266 265 264 264 264 265 264 263 264 265 266 266 268
269 271 273 278 276 275 274 273 273 274 275 276 277 279 277 277 278 278 278 276 270 268 269 268 267 267 266 266 266 265 265 265 264 263 265 265 264 263 264 265 265 267 267
268 270 272 275 275 273 273 273 273 274 275 276 277 277 276 278 279 279 273 270 268 269 268 267 267 266 266 266 265 265 264 265 264 263 264 264 264 263 264 265 266 267 267
268 270 272 276 274 272 272 273 273 274 275 276 276 276 277 278 278 269 269 269 270 268 266 266 266 266 265 265 265 264 264 265 264 264 264 264 264 263 264 264 267 267 267
268 271 273 273 272 272 272 273 273 275 275 275 275 277 279 271 269 268 267 268 269 267 267 266 266 266 265 265 265 264 265 265 265 264 264 264 264 264 263 266 267 266 266
272 272 271 271 271 271 272 273 274 274 274 273 274 276 269 267 266 266 267 267 266 265 265 265 265 265 265 264 264 265 265 265 265 264 264 265 265 264 265 267 266 266 265
270 270 270 270 271 271 270 271 272 270 271 272 271 267 266 265 265 265 265 264 264 264 264 264 264 264 264 264 264 264 265 265 265 266 266 266 266 265 266 266 266 265 265
267 268 268 269 269 269 269 268 268 268 269 266 265 264 264 264 265 264 264 263 263 263 263 263 263 263 263 264 264 265 265 266 266 267 267 267 267 267 266 266 264 264 264
265 265 265 265 266 266 267 267 266 265 264 263 263 263 263 264 264 263 263 262 262 262 263 263 263 263 263 264 264 265 266 266 267 267 267 268 267 267 266 265 264 263 264

GFSGL_925_thetae_006.txt.gz
Theta_e
295 294 294 294 294 294 294 294 294 293 293 292 292 291 290 289 288 287 287 287 286 286 285 284 283 283 282 282 281 281 280 279 278 278 279 279 279 279 280 280 281 281 281
297 295 295 295 294 294 293 293 293 293 293 292 291 290 289 288 287 287 286 286 286 285 284 283 283 282 282 281 280 279 278 278 277 276 276 276 276 277 278 278 277 277 277
295 296 296 295 294 294 294 293 292 291 292 291 290 290 289 287 286 286 286 286 286 285 284 283 283 282 281 280 279 278 277 276 275 274 274 274 275 276 276 276 277 277 277
293 293 293 294 294 294 294 292 291 290 290 289 290 289 288 287 286 285 285 285 285 284 284 283 283 282 281 280 278 277 276 275 274 273 273 274 274 276 277 277 277 276 276
291 291 292 292 293 293 292 293 291 290 290 288 287 287 287 286 285 284 284 284 283 282 282 282 282 282 281 280 279 277 276 275 274 273 273 274 276 277 277 276 276 276 276
290 290 290 290 291 292 292 291 291 289 288 287 286 286 285 284 284 284 284 282 282 281 280 280 280 280 279 278 277 276 277 276 275 274 275 276 277 276 276 276 276 276 277
289 289 289 289 289 290 290 290 289 288 287 286 285 285 285 284 283 284 283 282 281 280 280 279 278 278 277 277 277 276 276 276 276 278 277 277 276 276 276 276 277 277 276
289 288 288 287 287 288 289 288 288 286 285 284 284 284 283 283 283 284 283 281 280 280 280 280 279 277 277 276 277 277 278 278 278 278 277 276 277 278 277 277 277 275 273
288 288 287 286 286 287 287 287 286 285 284 283 283 282 282 282 283 284 283 279 279 278 278 278 278 278 278 276 275 276 276 276 275 276 277 278 278 277 277 275 273 272 271
285 285 285 285 286 285 285 285 284 283 283 282 282 281 281 281 282 284 284 278 277 276 276 276 277 278 277 277 275 275 274 275 275 276 276 275 275 274 274 272 271 271 270
280 280 283 285 286 286 283 283 283 282 281 281 280 280 280 280 281 284 284 278 277 276 276 275 276 277 277 278 276 275 275 276 276 276 275 274 274 273 273 272 272 270 270
277 278 280 280 283 283 283 281 280 280 279 279 278 277 277 278 279 284 285 278 278 277 276 275 275 277 277 278 278 276 277 277 276 275 274 273 272 272 272 271 271 270 270
275 276 276 277 279 281 281 279 278 278 277 276 276 276 275 276 278 281 285 281 278 276 276 275 276 278 278 279 279 278 277 275 274 273 271 271 271 270 270 270 269 268 268
272 272 273 274 276 280 279 279 278 277 277 277 276 276 275 275 276 278 283 283 279 275 276 276 276 278 279 278 277 276 273 273 272 271 270 269 269 269 269 268 268 267 267
270 270 270 272 274 277 279 278 278 278 278 278 277 277 276 275 275 278 283 283 279 275 275 276 277 276 274 273 273 271 270 269 269 269 268 268 268 267 267 267 267 267 266
267 267 268 270 272 274 278 278 278 279 278 279 279 278 277 277 277 278 282 282 279 278 275 276 274 273 272 270 268 268 268 268 268 268 267 267 267 266 266 266 266 266 266
265 265 266 267 269 272 276 276 277 276 279 280 280 280 279 277 278 278 280 283 280 278 275 273 272 271 270 269 268 268 267 267 267 267 267 267 266 265 264 264 264 265 265
264 264 265 266 268 270 273 276 276 276 276 278 280 280 281 279 279 279 280 282 282 278 272 272 271 270 269 268 268 268 267 267 267 266 266 266 266 264 264 263 264 264 265
263 264 265 266 268 270 272 275 275 275 275 276 278 279 280 280 279 279 280 281 280 272 271 271 270 269 269 268 268 267 267 266 266 266 266 266 266 264 263 263 263 264 265
263 263 265 266 267 268 270 275 274 274 274 275 276 277 280 280 279 280 280 281 274 272 271 269 269 270 269 268 267 266 266 266 266 266 266 266 265 264 263 263 263 264 264
264 264 264 266 267 269 271 273 273 273 274 275 276 277 278 278 278 279 280 274 271 269 268 269 270 269 267 267 266 266 266 266 266 266 266 265 264 264 265 264 263 263 265
265 265 265 266 268 270 273 273 273 273 274 274 276 277 279 277 277 272 270 269 270 270 269 269 268 267 267 266 266 266 265 266 265 265 265 265 265 265 265 264 263 264 266
267 268 270 270 271 272 272 272 272 273 274 275 276 277 276 271 270 268 266 268 269 269 269 268 267 266 265 265 265 265 265 265 265 265 265 265 265 266 265 263 264 265 265
266 268 269 270 271 271 272 272 273 273 274 273 269 268 267 266 265 264 266 268 268 267 266 266 266 266 265 265 265 265 265 265 265 265 265 266 266 267 266 264 264 265 264
265 266 266 267 268 269 268 269 270 268 267 266 265 264 264 264 265 265 266 267 266 265 265 265 265 264 264 264 264 264 265 265 265 265 266 266 266 267 266 266 265 265 264
263 264 264 265 266 266 266 266 265 265 264 264 264 264 264 264 265 266 266 265 264 264 263 263 263 263 263 263 263 264 264 265 266 266 266 266 266 267 267 267 265 264 263

GFSGL_925_thetae_009.txt.gz
Theta_e
292 293 293 293 294 294 293 294 294 294 294 293 294 292 291 291 290 289 288 288 288 288 288 287 287 287 286 285 285 285 284 284 285 280 281 280 279 279 279 279 280 280 281
292 292 292 292 292 292 293 293 293 293 293 293 293 292 290 289 289 289 287 287 287 287 287 286 286 285 285 284 284 284 283 283 282 282 279 279 279 280 280 280 280 280 281
290 290 292 292 291 290 290 291 291 291 292 292 291 290 289 289 287 288 287 286 286 286 286 286 285 285 283 283 283 282 282 281 280 279 278 279 279 280 280 280 280 280 282
288 289 289 289 290 292 291 291 291 291 289 290 290 290 289 288 287 286 286 285 286 285 285 285 285 285 284 283 282 281 280 279 278 277 276 276 276 278 278 278 279 278 279
288 288 288 288 287 288 291 290 290 289 289 289 288 288 288 288 287 286 285 284 284 284 284 284 284 284 285 285 283 281 279 277 276 276 276 276 277 277 278 278 277 277 278
286 288 287 287 286 285 287 289 290 289 289 288 287 287 286 285 286 286 286 284 283 283 282 282 282 283 283 284 283 283 282 278 275 275 276 277 277 278 277 277 277 278 279
284 285 286 285 284 284 285 287 289 288 288 287 286 285 285 285 285 285 285 284 283 283 282 281 280 281 281 281 280 280 279 278 279 278 277 278 278 278 277 277 277 278 278
283 283 283 282 281 283 284 284 286 286 285 286 285 285 284 285 285 285 285 284 283 283 282 281 280 280 280 280 280 279 278 277 277 277 278 278 278 277 277 277 277 276 274
281 281 280 279 279 283 283 283 283 284 284 284 284 284 284 284 284 285 286 285 282 282 281 280 280 279 280 279 279 278 277 276 277 278 278 278 277 278 278 277 276 273 273
280 279 278 277 278 281 280 281 281 282 283 283 283 283 283 283 283 284 286 286 282 281 280 279 279 279 279 280 279 278 278 278 278 279 277 278 279 278 276 275 273 272 272
278 277 276 275 276 277 277 279 280 280 281 281 282 282 282 282 282 283 285 286 282 281 279 278 277 279 279 280 278 277 278 277 277 276 277 277 276 275 274 272 272 272 271
276 275 274 273 273 274 274 276 279 280 280 280 280 280 280 280 281 281 284 286 282 281 279 278 277 279 279 281 279 276 277 276 276 276 275 274 273 272 272 271 271 271 271
273 272 272 271 271 271 272 274 276 279 278 279 279 279 280 278 279 281 282 285 283 279 279 278 277 279 280 281 280 277 277 277 275 275 273 272 271 271 270 270 270 270 270
270 270 269 269 269 269 270 272 274 278 279 279 279 279 279 277 277 278 280 283 283 280 279 278 278 280 280 280 281 279 277 277 276 274 272 271 270 269 269 269 269 269 268
267 267 267 267 267 268 268 270 273 276 278 279 279 279 279 278 277 277 279 281 283 280 277 277 278 280 279 279 279 275 275 275 274 273 271 269 269 269 269 268 268 268 267
264 264 264 265 265 265 266 268 269 272 276 280 280 281 279 279 280 279 279 281 282 279 277 277 278 279 276 277 275 273 273 274 272 271 269 269 268 268 268 267 267 267 267
263 263 263 263 264 264 265 267 269 270 274 279 280 281 281 282 280 280 280 282 283 280 277 278 278 278 276 275 273 272 270 271 270 269 268 268 267 267 266 266 266 266 266
262 262 262 262 263 263 264 266 268 270 272 275 276 278 281 282 282 280 280 282 283 280 278 278 277 276 273 272 272 271 270 269 268 268 267 267 267 266 266 266 265 265 265
262 262 262 262 263 263 264 265 267 268 270 274 275 276 278 282 282 281 281 282 283 280 277 276 274 273 272 272 271 270 269 267 267 267 266 266 266 266 266 266 265 265 264
262 262 263 263 264 264 264 266 267 268 270 274 275 275 277 279 281 281 281 280 282 280 274 273 272 272 271 270 269 268 267 266 266 266 266 266 265 266 266 266 265 264 264
263 263 264 264 264 264 265 265 267 269 272 273 274 275 276 278 280 279 279 280 278 273 273 271 271 269 268 268 268 267 267 266 266 266 266 266 266 266 266 265 265 265 264
264 265 265 266 266 265 266 267 268 270 273 273 273 274 276 279 279 278 276 273 271 270 271 272 269 268 268 268 269 268 267 266 266 266 266 266 266 266 266 265 265 264 263
264 265 266 267 269 270 268 269 272 272 272 273 273 274 275 271 270 268 268 268 269 270 270 270 269 268 268 269 268 268 267 267 266 266 266 266 266 266 265 265 265 264 264
263 264 265 266 268 269 270 270 271 272 270 269 268 267 266 266 266 265 265 266 267 268 269 269 268 268 267 266 266 266 266 266 265 266 265 266 266 266 266 266 265 265 264
262 263 264 265 265 266 266 266 266 265 265 265 264 264 263 263 263 264 264 265 266 267 267 267 267 266 266 266 266 265 265 265 265 265 265 266 266 266 266 266 266 265 264
260 261 262 262 263 263 264 264 264 263 263 263 263 263 262 262 262 263 264 265 265 266 266 265 265 265 265 264 264 264 264 265 265 265 265 266 266 266 266 266 266 265 265

GFSGL_925_thetae_012.txt.gz
Theta_e
290 291 292 292 292 292 292 292 292 292 291 291 292 292 291 291 290 290 290 290 289 289 289 289 289 289 289 289 289 289 288 290 294 286 286 285 284 283 281 281 282 282 281
289 289 289 289 289 289 291 291 291 291 291 290 290 290 290 290 290 289 289 289 289 288 288 287 288 288 288 288 287 287 287 287 289 285 283 283 282 281 281 281 282 282 280
287 288 288 288 286 286 287 288 290 290 290 290 290 289 289 289 289 289 289 289 288 288 288 287 287 286 287 286 286 286 286 286 285 287 282 281 280 280 279 280 280 280 280
286 287 287 287 287 285 284 285 286 288 289 289 289 288 288 288 288 288 287 288 288 287 288 287 287 287 287 286 286 286 285 285 283 283 283 280 280 279 280 281 281 281 281
284 286 286 286 285 284 284 284 284 284 287 288 288 287 287 287 287 287 287 287 287 287 287 286 286 286 286 287 286 285 284 284 283 282 282 281 280 279 280 281 282 281 281
283 283 284 284 283 282 282 283 284 284 284 284 288 287 287 287 286 286 286 286 286 286 286 286 285 285 285 285 285 285 286 284 283 282 282 281 281 281 281 281 280 281 284
282 282 282 282 281 281 280 282 283 283 283 283 284 286 286 286 286 286 286 286 286 286 286 286 285 284 283 284 284 284 283 283 284 283 282 281 281 281 281 280 280 281 281
282 281 281 281 280 279 279 281 282 281 282 282 283 284 285 285 286 286 286 286 286 286 286 285 285 284 282 283 283 283 282 282 282 281 282 281 281 281 280 280 280 280 280
282 281 281 280 279 278 277 278 279 279 281 282 282 283 284 285 285 285 286 286 287 286 285 285 284 284 282 282 283 283 282 280 281 279 279 280 280 280 279 279 279 278 278
280 280 279 279 277 276 276 276 277 278 278 280 281 282 282 283 284 285 285 286 286 287 286 284 284 283 282 282 283 283 281 280 279 278 278 280 280 279 279 279 278 278 277
278 278 277 277 276 275 274 274 275 275 275 276 279 281 281 282 283 284 285 285 286 287 287 285 283 283 283 282 283 282 282 280 279 278 279 279 279 279 280 279 277 275 276
276 275 275 274 273 273 273 272 272 273 274 275 277 280 281 282 282 282 284 285 285 286 287 285 283 281 282 282 283 282 281 280 279 280 280 279 278 277 277 275 274 274 274
272 271 271 271 270 270 270 270 271 271 272 274 276 279 281 281 282 282 283 284 284 285 287 284 282 281 282 282 283 282 281 279 279 279 279 278 277 276 274 273 273 272 272
267 267 267 267 267 267 268 268 269 270 271 273 275 278 280 281 281 281 281 281 283 284 286 284 282 280 281 281 282 283 281 278 279 278 277 276 275 273 272 272 272 271 271
264 264 264 265 265 265 265 266 267 268 269 270 272 275 278 280 280 281 280 280 282 283 283 281 280 280 281 282 282 281 279 276 276 276 275 273 273 272 272 271 271 271 271
263 263 264 264 264 264 264 264 265 266 268 269 271 273 274 276 279 280 281 281 281 283 280 280 280 280 281 282 282 279 277 276 276 275 273 272 272 271 271 270 270 270 270
262 262 263 263 263 264 264 264 265 265 266 267 269 271 274 276 279 281 282 282 282 282 281 280 281 280 281 281 280 276 276 276 274 273 272 271 271 271 270 270 269 269 269
261 262 262 263 263 263 263 264 264 264 265 266 267 271 273 278 281 281 283 283 282 282 282 280 281 281 281 280 277 275 274 273 273 272 271 270 270 269 269 269 269 268 268
262 263 263 263 263 264 264 264 264 264 265 266 267 268 271 275 277 279 281 283 282 282 282 280 280 280 279 279 275 274 273 272 271 270 270 269 268 268 268 268 268 267 267
263 264 264 264 264 264 265 265 265 266 266 267 268 270 272 275 276 278 282 283 282 282 282 279 279 277 276 275 274 272 272 270 269 268 267 267 267 267 267 267 267 267 267
263 264 265 265 266 266 266 266 266 266 267 267 269 271 275 276 277 278 281 282 281 282 278 275 274 274 274 272 271 270 269 268 267 266 266 266 267 266 266 266 266 265 266
263 264 264 265 266 268 269 270 267 267 268 269 271 274 274 275 276 278 279 277 275 275 274 273 273 273 271 270 269 268 267 266 266 267 267 267 266 266 265 265 265 265 265
263 263 264 265 266 268 269 270 270 270 271 273 273 273 273 271 271 270 269 270 271 271 271 271 270 268 268 268 268 268 267 267 268 268 267 266 266 265 265 265 265 264 265
261 262 264 264 265 266 266 267 267 267 267 268 267 267 266 266 265 265 265 266 267 267 267 268 268 269 268 267 267 268 270 269 269 268 268 267 266 265 265 265 265 265 265
260 261 262 263 264 264 264 265 265 266 266 265 265 265 264 264 264 263 263 264 264 265 265 266 266 267 268 268 268 268 267 267 267 267 266 266 266 266 265 265 265 264 265
259 260 261 261 262 262 263 263 263 263 264 264 263 263 263 263 262 262 263 263 263 264 265 266 267 267 267 267 266 266 267 266 266 266 266 265 265 266 265 266 266 265 265

GFSGL_925_thetae_015.txt.gz
Theta_e
289 289 289 289 288 287 288 288 290 291 291 292 292 292 293 293 294 294 293 293 293 293 293 292 293 293 292 292 292 293 294 295 298 290 290 289 288 286 285 285 283 284 284
287 288 288 288 286 286 285 285 285 286 289 290 290 290 291 291 292 292 292 292 292 292 292 291 291 291 291 291 291 291 291 292 295 288 288 288 287 286 285 284 283 283 283
286 286 287 287 287 285 284 284 284 284 284 285 289 289 289 290 290 290 291 291 291 291 291 291 290 290 290 290 290 290 290 290 291 289 286 286 286 285 284 282 282 281 282
286 285 286 286 286 285 283 283 283 284 284 284 284 286 289 289 288 289 289 289 289 290 290 290 290 289 289 289 289 289 289 289 288 289 285 284 283 282 282 281 281 281 282
286 285 285 285 284 283 283 282 282 283 284 284 284 284 284 286 290 288 288 288 288 288 289 289 289 289 289 289 289 288 288 288 287 287 285 283 282 281 281 281 282 282 282
284 284 283 283 283 283 282 281 281 283 284 283 283 283 283 284 284 288 288 287 287 287 287 288 288 288 288 288 288 289 288 288 287 287 286 285 283 282 281 281 282 283 283
284 284 283 283 282 282 281 281 280 280 282 282 282 283 283 284 284 286 287 288 287 287 287 287 287 287 287 287 287 288 288 288 289 288 287 285 284 282 282 282 282 282 284
283 283 283 283 282 281 281 280 279 279 280 280 281 282 282 283 284 285 286 287 287 287 287 287 286 287 286 285 285 287 287 287 287 288 287 286 285 283 283 283 282 282 282
281 281 281 281 281 280 280 279 278 278 278 278 279 279 280 281 282 283 285 286 286 287 287 287 287 286 286 286 285 285 286 286 285 286 285 285 285 284 283 282 281 281 281
280 280 279 279 279 279 278 278 277 277 276 277 277 277 277 278 279 282 283 284 286 286 287 287 287 286 286 286 285 285 285 286 284 284 283 283 283 283 282 282 282 281 280
277 276 275 275 275 275 275 275 275 275 274 274 274 274 275 276 277 280 282 283 285 286 286 287 287 287 286 286 286 284 285 285 284 283 281 281 282 282 281 281 281 281 280
272 271 270 270 270 270 270 271 271 271 271 272 272 273 274 275 277 279 281 283 284 285 286 286 287 287 287 286 286 285 285 285 283 282 280 281 281 280 280 280 279 279 279
268 267 266 266 266 266 267 267 268 268 269 270 271 272 272 274 276 278 280 282 283 284 285 286 286 287 287 286 285 285 284 285 282 281 280 281 281 280 280 279 277 277 276
265 265 264 264 264 264 265 265 266 266 267 268 268 269 271 272 274 276 279 281 282 282 283 284 286 286 286 284 284 285 284 284 282 281 281 281 280 279 277 276 275 274 273
264 264 264 264 264 264 265 265 265 265 265 266 267 267 268 269 271 273 276 279 281 281 281 283 285 286 284 283 283 283 284 283 281 281 281 280 278 276 275 274 274 273 273
263 263 263 263 263 264 264 264 265 266 267 267 268 269 269 270 271 273 274 275 277 280 283 282 284 285 283 282 283 282 283 283 281 281 280 277 276 275 274 273 273 273 273
262 262 262 262 263 263 264 264 265 265 265 266 267 268 269 270 271 272 274 275 278 279 282 283 283 283 282 282 283 282 283 280 279 278 277 275 274 274 273 273 272 272 272
261 262 262 263 263 264 264 265 265 265 265 265 265 266 267 269 270 272 274 276 278 279 283 283 283 282 282 282 282 282 281 277 277 276 275 274 274 273 273 272 271 271 271
261 262 262 263 264 265 265 265 266 266 266 266 266 267 267 268 270 272 275 279 281 282 283 282 282 282 281 282 281 279 277 276 276 275 274 273 273 272 272 271 271 270 270
262 262 263 264 265 265 266 266 267 267 267 267 267 267 268 269 271 275 276 277 278 279 282 282 282 281 281 279 277 276 275 275 274 273 272 271 271 271 270 270 269 269 269
262 263 264 264 265 265 266 268 269 271 270 268 268 268 271 273 275 276 276 278 280 283 282 282 281 279 278 277 275 275 274 273 272 271 270 269 270 269 269 269 268 268 268
262 262 263 264 265 266 266 267 268 269 269 270 270 271 273 273 274 274 274 274 277 279 279 278 277 277 276 275 274 273 271 270 269 268 268 268 268 268 268 268 267 267 267
261 262 262 263 264 265 265 266 267 267 267 267 267 267 267 267 267 268 268 268 271 273 274 274 273 272 272 272 271 270 269 268 268 268 267 267 267 267 267 267 267 267 266
261 261 261 262 263 264 264 265 265 265 265 265 265 265 265 265 265 265 265 266 267 267 268 269 269 269 269 270 270 270 269 268 269 268 269 268 267 267 266 266 266 266 266
260 260 261 261 262 262 263 264 264 264 264 264 264 264 264 264 263 263 263 264 264 265 265 266 266 267 267 267 267 267 267 268 268 269 269 268 267 267 266 266 266 266 266
261 261 260 260 261 261 262 262 263 263 263 263 263 263 263 263 263 262 263 263 263 263 263 264 264 265 266 266 267 267 268 269 269 268 268 268 267 266 266 266 266 266 266

GFSGL_925_thetae_021.txt.gz
Theta_e
286 285 285 285 285 284 284 284 284 284 284 284 284 284 284 285 285 287 291 291 291 292 293 294 294 295 295 295 295 295 295 295 294 295 292 292 292 291 291 291 292 291 289
286 285 285 285 284 284 284 284 284 284 284 283 283 284 284 284 284 284 284 286 290 291 290 291 292 293 293 293 293 293 294 294 294 293 293 291 290 291 291 291 291 290 289
286 286 285 284 284 283 283 282 282 283 283 283 283 283 283 283 283 283 283 284 284 286 289 290 290 290 290 291 291 291 291 292 293 292 292 291 290 290 289 289 290 289 288
287 286 286 285 284 283 282 282 282 281 281 281 281 281 281 281 282 282 283 283 284 285 285 286 289 290 289 289 290 290 290 291 291 291 289 289 289 289 288 286 284 287 287
288 287 286 285 284 282 281 281 281 281 280 280 280 280 280 280 280 281 282 283 284 284 284 285 285 285 288 289 288 289 289 289 290 290 289 287 288 287 286 285 285 284 284
286 286 285 284 281 281 280 280 280 280 280 279 279 279 278 278 279 280 281 282 283 283 284 285 285 285 285 285 288 289 289 289 289 290 290 289 288 288 286 285 285 283 282
284 283 281 280 280 280 279 279 278 278 277 277 277 277 278 278 278 279 279 280 280 281 282 283 284 285 285 285 285 287 289 289 290 289 290 290 289 287 286 286 284 285 286
280 278 278 278 278 277 276 275 274 274 274 274 275 275 276 276 277 277 278 278 278 279 280 280 282 283 284 285 285 286 286 287 289 289 290 289 289 289 287 287 286 285 286
276 276 276 275 273 272 271 270 270 270 270 270 270 271 272 272 273 274 275 276 276 276 276 277 278 280 282 283 285 286 286 286 286 288 289 289 289 289 288 285 286 284 284
274 273 271 270 269 269 268 267 267 267 267 267 267 267 267 268 268 269 271 272 273 274 274 275 276 277 279 281 283 285 286 286 286 286 287 288 289 289 289 286 285 284 285
271 269 268 267 266 266 265 265 265 265 265 265 265 265 265 266 266 268 270 271 272 273 273 274 275 277 278 280 282 284 285 286 286 286 286 286 287 288 289 287 285 285 286
268 267 266 266 265 264 264 264 263 263 264 264 264 264 265 265 266 267 268 270 270 271 271 272 273 274 277 279 281 283 285 286 286 286 286 286 286 287 287 288 285 284 285
266 266 265 265 264 264 263 263 263 263 264 264 264 264 265 265 265 266 268 268 269 269 270 270 271 272 274 278 281 283 284 285 287 287 286 286 286 286 287 286 286 285 284
265 265 264 264 263 263 263 262 262 262 263 263 264 265 265 266 268 268 267 267 268 269 269 269 270 271 273 275 277 281 284 285 286 287 287 286 285 285 285 284 283 282 282
264 264 263 263 263 262 262 262 263 264 264 266 268 268 269 270 270 271 272 273 273 272 271 269 269 272 274 275 275 281 283 284 284 286 287 286 285 284 283 283 282 280 281
263 263 263 262 262 262 262 262 263 265 266 268 269 269 270 270 271 272 273 273 274 275 274 273 273 272 273 274 275 278 280 281 283 285 286 286 284 283 283 282 282 280 281
263 262 262 261 261 261 262 262 263 264 265 266 267 268 269 271 272 273 273 274 274 275 274 273 272 272 273 274 275 276 281 282 283 285 285 285 283 282 282 281 280 279 279
262 262 261 261 261 261 262 262 263 263 264 265 266 267 269 269 271 272 273 274 273 273 273 272 271 272 273 273 275 277 279 282 282 284 284 283 282 282 281 280 279 278 278
262 262 261 261 261 261 261 262 263 264 265 265 265 266 266 267 269 269 269 269 270 271 272 273 272 272 273 274 275 276 278 281 282 282 282 282 281 280 279 279 278 278 277
263 262 261 261 261 260 261 262 263 263 264 264 264 264 265 268 265 265 265 266 267 267 268 268 270 275 275 277 276 278 279 281 281 281 281 280 279 279 278 277 276 276 276
262 261 261 260 260 260 260 261 262 263 263 263 263 263 267 265 264 264 264 264 265 265 266 267 270 275 277 279 278 280 280 280 280 279 279 278 277 276 277 276 275 275 274
261 261 261 260 260 260 260 260 261 262 262 263 263 263 265 263 263 263 263 263 263 264 264 265 267 270 272 274 277 278 278 278 277 276 275 275 275 274 274 273 273 272 272
261 261 260 261 260 260 260 260 261 261 262 262 262 263 263 263 263 262 262 262 262 262 264 265 265 268 270 272 273 274 274 273 274 274 273 273 272 272 272 271 271 271 271
261 260 260 260 260 260 260 260 260 260 260 261 261 261 262 262 262 262 262 262 262 262 263 264 265 266 267 269 270 271 272 272 272 272 272 271 271 270 270 270 270 270 269
260 260 260 260 259 259 259 260 260 260 260 260 260 260 260 261 261 261 262 262 263 263 263 264 264 265 266 267 268 268 269 270 270 270 270 270 269 269 269 268 268 268 268
260 260 260 260 259 259 259 259 259 259 259 259 259 260 260 260 260 261 261 261 262 263 264 264 265 266 266 267 267 267 267 268 268 269 269 268 268 268 268 267 268 267 267

GFSGL_925_thetae_024.txt.gz
Theta_e
286 285 285 285 285 285 284 284 283 283 283 283 283 283 283 283 283 283 284 284 284 284 284 286 289 290 291 293 292 292 292 292 292 294 294 294 294 293 293 292 291 291 292
286 286 285 285 285 284 283 283 282 282 282 282 282 282 282 282 282 282 282 282 282 283 284 284 285 285 288 290 290 291 290 291 291 292 293 294 293 293 293 293 292 291 291
286 286 286 285 285 284 283 282 281 281 281 281 281 280 280 280 280 280 280 280 281 282 282 283 284 284 285 286 288 289 289 290 290 290 291 292 293 291 290 290 290 290 290
287 287 287 286 285 284 283 281 280 280 280 279 279 279 279 279 279 279 279 280 281 281 282 283 283 283 284 284 286 287 288 289 289 289 289 290 290 290 289 288 287 287 288
287 287 286 285 284 283 281 280 280 279 278 278 277 277 277 277 278 278 279 280 280 280 280 281 282 283 283 284 285 286 287 288 289 289 289 289 287 287 288 288 287 286 285
286 285 284 284 283 280 279 278 277 276 275 275 275 275 275 275 277 278 279 279 279 279 279 279 280 280 282 284 285 286 287 288 288 289 289 289 289 287 288 288 287 286 286
284 283 281 279 278 277 276 275 274 274 273 272 272 272 272 272 273 274 275 276 277 277 277 278 278 279 280 281 282 283 284 285 288 288 289 289 289 290 288 287 286 287 288
280 278 277 276 275 274 273 272 271 270 270 269 269 269 269 269 270 271 272 272 272 273 274 275 277 277 277 278 279 280 282 283 284 286 288 289 289 289 289 288 287 287 288
277 275 274 272 271 271 270 269 268 268 267 267 267 267 266 266 267 268 270 270 270 271 271 272 273 273 274 276 277 278 279 280 283 284 285 286 288 289 289 288 286 286 286
273 272 271 271 270 268 268 267 266 266 265 265 265 265 265 265 265 267 269 269 270 270 271 271 272 273 274 275 276 277 278 279 280 282 284 285 286 288 289 290 287 287 287
271 271 270 269 268 268 267 266 265 264 264 263 263 264 264 264 264 266 268 269 270 270 270 271 271 271 272 273 274 275 278 279 280 281 283 284 285 285 286 288 289 287 287
270 269 268 268 267 266 265 265 264 263 262 263 263 263 264 264 265 266 268 270 270 271 271 271 270 270 271 272 273 274 275 277 279 282 284 284 285 285 285 286 287 288 287
268 267 267 267 266 265 264 264 263 262 262 262 263 263 264 264 265 266 268 269 270 270 270 270 272 273 273 273 273 272 273 275 277 279 283 285 285 285 285 285 285 287 287
267 267 267 265 265 264 264 263 262 262 262 263 263 264 265 267 269 269 269 270 270 271 271 271 272 272 273 273 273 273 273 273 274 277 280 284 285 285 285 285 285 286 286
266 266 265 264 264 263 263 263 263 263 264 266 268 269 269 269 270 271 273 273 274 274 275 275 274 269 269 269 269 271 273 273 274 276 280 283 284 285 285 285 285 285 285
264 264 264 263 263 262 262 262 264 265 266 267 269 269 270 270 271 272 273 273 274 275 275 275 275 274 274 273 272 272 272 273 274 276 282 283 284 285 285 285 284 285 283
263 263 263 263 262 261 261 261 261 264 265 265 267 268 268 270 270 270 272 272 272 272 271 271 272 272 273 273 272 272 272 273 274 276 280 281 283 284 284 284 283 283 282
263 264 263 262 262 261 261 261 261 261 262 263 264 265 266 267 268 270 269 268 265 266 267 268 268 268 271 272 272 272 272 273 275 276 280 282 283 283 283 283 282 282 281
263 263 263 262 261 261 261 261 261 261 262 262 263 263 264 265 267 266 265 263 264 264 265 265 266 267 269 269 272 272 272 272 274 276 280 282 283 283 283 282 282 281 280
263 263 262 261 261 261 260 260 260 261 261 262 262 262 263 266 263 263 263 263 263 263 263 264 264 265 268 270 273 273 274 273 274 276 279 281 282 282 282 281 280 279 280
262 262 261 261 261 260 260 260 260 260 260 261 262 262 267 263 262 262 262 262 262 262 262 262 263 264 266 267 269 274 276 276 278 279 280 281 281 280 281 280 279 278 278
261 261 262 261 261 260 260 260 260 260 260 260 261 261 263 262 261 262 262 262 262 262 262 262 263 264 265 266 268 269 272 274 275 277 278 278 278 278 278 277 277 276 275
261 261 261 261 261 261 261 260 260 260 260 261 261 261 261 261 261 261 261 262 262 263 263 263 263 264 265 267 268 268 269 271 272 274 275 275 274 274 274 274 274 273 273
261 261 261 261 260 260 260 260 260 260 259 260 260 260 260 261 261 261 261 261 262 263 264 264 264 265 266 267 267 268 269 270 271 272 273 273 272 272 272 272 272 272 272
260 260 260 260 260 260 260 260 260 260 260 260 259 260 260 260 260 261 261 262 262 263 263 264 265 266 267 267 268 267 268 269 269 270 271 271 271 270 270 270 270 270 270
260 260 260 260 260 260 259 260 260 259 259 259 259 259 259 260 260 260 260 261 261 262 263 264 265 266 266 267 268 269 268 268 268 269 269 269 269 269 269 268 268 268 268

GFSGL_925_thetae_027.txt.gz
Theta_e
286 286 285 285 285 285 285 283 283 283 283 283 282 282 282 282 281 281 280 280 280 281 281 282 282 283 283 284 285 287 289 290 290 292 292 293 293 294 294 294 294 293 293
286 286 286 285 285 285 284 283 282 282 282 281 281 281 281 280 280 279 279 279 279 279 280 280 281 282 282 283 283 284 285 287 289 289 290 291 292 293 293 294 294 293 292
287 286 286 285 285 284 283 282 281 281 280 280 279 278 277 277 278 278 278 278 279 279 280 280 281 281 282 282 283 284 285 286 287 288 288 289 290 290 291 292 292 292 291
286 286 286 285 284 284 283 282 281 280 279 278 277 276 276 276 276 276 277 278 278 279 279 279 279 280 280 281 282 283 283 285 286 287 287 288 288 289 290 289 289 289 289
286 285 285 285 284 283 282 281 280 279 278 277 276 276 274 273 274 275 276 276 277 277 278 279 279 279 279 280 281 282 283 284 285 286 287 287 288 287 287 288 288 288 289
285 285 285 284 283 282 280 279 278 277 276 275 274 273 272 271 272 273 274 274 274 275 275 276 277 277 278 278 279 280 281 283 284 285 286 286 287 288 288 288 287 287 286
285 285 284 283 281 279 278 277 276 275 274 272 271 270 269 269 270 271 272 271 271 271 272 272 273 273 274 276 277 278 279 280 281 282 284 285 286 287 288 287 287 288 288
284 283 281 280 278 277 276 275 273 272 270 269 268 268 267 267 268 269 270 270 270 270 270 270 271 271 272 273 274 274 275 276 277 278 280 282 283 284 287 288 288 288 288
281 280 278 276 276 275 273 272 271 270 269 268 267 266 266 266 266 268 269 269 269 269 269 270 270 271 271 273 274 275 274 275 275 276 278 279 281 283 285 286 287 288 288
278 276 275 274 273 272 271 270 269 268 267 266 265 265 265 265 265 267 269 269 269 269 270 270 270 271 272 273 274 273 273 273 274 275 276 277 278 279 281 285 286 287 287
276 274 273 272 271 271 270 269 268 267 265 265 264 264 265 265 266 267 268 269 270 270 270 271 271 271 272 273 274 274 274 274 275 275 275 276 277 279 280 282 284 286 287
273 272 272 271 270 270 268 268 267 266 264 264 263 263 264 265 266 267 268 270 271 271 271 271 271 271 272 273 275 275 276 277 275 274 274 275 276 277 281 282 283 284 285
271 271 270 269 269 269 268 267 266 265 263 262 262 263 264 265 266 267 269 270 271 272 272 272 274 274 275 275 274 274 274 274 273 272 272 273 273 276 278 281 283 284 284
269 268 268 267 268 267 266 266 264 264 263 262 263 264 266 268 269 269 269 270 271 273 273 274 274 274 275 275 274 274 274 274 273 273 273 273 273 274 275 277 284 284 284
268 267 267 266 266 265 265 265 265 264 264 266 268 269 269 269 269 271 273 273 273 274 274 273 272 273 274 274 272 271 271 271 271 271 272 272 273 273 274 276 283 284 284
267 266 265 265 265 264 264 264 267 265 267 268 269 269 269 269 270 271 271 272 273 272 270 268 268 268 269 270 270 271 272 272 271 272 272 272 273 274 276 278 284 284 285
266 265 264 264 263 263 263 262 261 268 266 265 266 267 268 269 269 270 270 270 268 267 264 264 265 266 267 267 267 268 269 272 272 272 272 273 274 275 275 281 281 283 285
265 264 264 264 263 262 262 261 261 260 261 265 265 264 266 267 269 268 268 265 263 263 263 263 263 264 264 265 266 268 270 271 272 272 272 273 275 275 280 282 283 283 284
264 264 264 264 263 262 261 261 261 261 261 261 263 264 265 264 266 265 264 262 262 262 262 262 262 262 263 264 265 267 268 272 272 272 272 273 275 276 281 282 282 283 283
263 263 263 263 262 262 261 261 261 261 260 261 261 261 264 265 264 262 262 262 262 262 262 262 262 262 262 264 265 266 268 269 273 272 272 273 275 277 279 281 282 282 282
263 263 263 262 262 262 261 261 261 260 260 260 261 262 265 264 262 261 261 261 261 262 262 262 262 263 263 264 265 266 267 268 270 272 275 275 277 278 280 280 281 281 281
262 262 262 262 262 262 261 261 261 260 260 260 261 262 262 261 261 261 261 262 262 262 262 262 263 263 264 264 265 266 266 268 269 270 272 274 276 277 278 279 279 279 278
261 261 261 261 261 261 261 261 261 261 260 260 260 260 261 261 261 261 261 262 262 263 263 263 263 264 265 266 266 267 267 267 268 269 270 272 273 274 275 276 276 275 275
261 261 261 261 260 260 260 261 261 260 260 260 261 261 261 260 261 261 261 261 262 262 262 263 264 264 265 266 266 268 269 268 268 269 270 271 271 272 272 273 273 273 273
260 260 260 260 260 260 260 260 260 260 261 260 261 260 260 260 261 261 261 261 261 262 262 262 263 264 265 267 267 268 269 269 268 268 269 270 270 270 271 271 271 271 271
261 260 260 260 260 260 260 260 260 260 260 260 260 260 260 260 260 260 261 261 261 262 262 263 263 264 265 267 267 267 268 269 268 268 268 269 269 269 269 269 269 269 269

GFSGL_925_thetae_030.txt.gz
Theta_e
285 285 286 286 285 285 285 284 283 282 282 282 281 281 280 280 280 280 280 280 280 279 279 279 280 280 281 281 281 282 282 284 287 287 287 288 289 289 291 292 292 294 295
286 286 286 286 285 285 284 284 283 282 281 280 279 279 278 278 278 278 278 278 278 278 278 278 279 279 280 280 280 281 282 282 284 284 285 285 286 286 287 289 291 291 292
286 286 286 285 285 284 284 283 282 281 280 280 279 278 277 277 276 276 276 276 276 277 277 278 278 278 279 279 280 280 281 281 282 283 284 285 285 286 286 286 287 290 291
286 286 285 285 285 284 284 283 282 280 280 279 278 277 276 276 275 274 274 274 274 275 275 276 276 277 278 278 278 279 280 281 282 282 283 284 285 285 286 287 287 287 288
286 285 285 284 284 284 283 283 281 280 279 278 277 276 275 274 273 273 273 273 273 273 273 273 274 274 276 277 278 278 279 279 280 281 282 283 284 285 285 286 286 287 287
286 285 285 284 283 284 283 281 280 279 278 277 276 275 274 272 271 272 273 273 272 272 271 271 271 272 272 273 274 276 278 279 280 280 282 283 283 284 285 285 286 287 286
285 285 284 283 283 282 280 279 278 277 276 276 274 273 272 271 270 271 272 271 271 271 270 270 270 271 271 271 271 272 273 274 276 278 279 279 280 281 282 283 285 286 286
284 283 282 282 282 280 278 277 277 276 275 274 272 271 270 270 269 270 271 270 270 269 269 269 269 270 270 271 271 272 273 273 274 274 275 275 276 276 277 278 280 282 284
283 282 282 282 281 279 278 277 275 274 273 272 270 270 269 269 269 269 270 269 269 269 269 269 270 270 270 272 273 273 274 274 273 274 274 276 277 278 279 279 280 282 283
282 281 281 280 278 277 276 274 273 271 271 270 269 268 268 268 269 267 269 270 270 270 270 270 270 271 272 273 274 274 274 273 273 273 273 273 274 275 275 276 277 278 280
280 279 278 277 276 275 274 272 271 271 270 268 267 267 268 268 268 267 269 271 271 271 271 272 271 272 273 273 274 275 274 274 275 275 275 275 275 275 275 275 275 277 279
278 277 276 275 274 273 272 271 270 269 268 267 266 267 267 267 267 267 270 271 272 272 272 272 272 273 274 275 276 277 278 277 276 274 274 273 273 273 273 273 274 275 277
276 275 274 273 273 271 271 270 269 268 266 265 264 265 266 267 268 268 270 271 272 273 273 273 274 275 275 275 274 275 275 276 275 275 274 274 274 273 273 273 273 273 274
275 273 272 272 271 270 269 268 268 267 265 264 264 265 267 268 269 269 270 272 272 272 273 273 272 271 270 271 271 271 272 272 272 272 273 273 273 273 273 273 272 272 273
273 271 270 269 269 268 268 268 267 267 265 266 268 269 269 269 269 272 272 273 273 273 271 268 267 265 266 267 268 268 268 268 269 270 271 271 271 271 272 272 272 273 273
270 269 269 268 267 267 266 266 267 266 267 269 270 270 269 269 270 271 272 272 271 269 266 263 263 263 264 265 265 266 266 267 268 269 270 271 271 272 272 272 272 273 274
269 268 267 266 266 265 265 264 263 267 266 266 267 267 268 269 269 271 270 270 266 266 263 262 261 262 262 263 263 264 265 266 267 268 270 271 272 272 272 272 273 274 275
268 267 266 265 265 264 264 263 262 261 262 265 264 264 266 267 268 269 268 266 265 263 262 261 261 261 262 262 262 263 264 265 266 268 270 272 271 272 272 273 275 277 280
266 266 265 264 264 263 262 262 262 261 261 262 264 264 265 265 265 265 264 263 262 262 262 261 261 262 262 262 262 263 264 265 266 268 270 272 272 272 272 274 275 277 280
265 265 264 263 263 263 262 262 261 261 261 261 262 263 264 264 264 264 263 263 261 261 261 261 262 262 262 262 263 263 264 266 266 267 268 270 272 273 273 274 277 278 280
265 264 263 262 262 262 262 262 261 261 261 261 262 262 263 265 263 262 262 262 262 261 261 262 262 262 263 262 263 263 265 266 267 267 268 268 270 271 273 276 278 279 280
263 262 262 262 262 261 261 261 261 261 261 261 262 262 261 262 262 262 262 262 262 262 261 261 261 262 263 263 263 263 265 267 267 267 267 267 269 270 271 273 276 278 279
262 261 261 261 261 261 261 261 261 261 261 261 261 261 261 262 262 262 262 262 262 262 262 262 262 262 263 264 265 265 264 266 268 267 267 268 268 269 271 272 273 274 275
261 261 261 261 260 260 260 260 260 260 260 261 261 261 261 261 261 261 261 261 262 262 262 262 262 263 263 264 266 267 267 267 268 268 268 268 268 269 270 271 272 272 273
260 260 260 260 259 259 259 259 259 260 260 261 261 260 261 260 261 261 261 261 261 261 262 262 263 263 263 264 266 267 267 268 269 268 268 268 268 269 269 269 270 271 271
260 260 260 260 260 259 259 259 260 260 260 260 260 260 260 260 260 260 260 260 261 262 262 263 264 264 264 264 266 267 267 269 269 268 268 268 268 268 268 268 269 269 269

GFSGL_925_thetae_033.txt.gz
Theta_e
285 285 285 285 285 285 285 284 284 283 282 282 281 281 280 280 280 280 280 280 279 279 278 278 278 278 279 279 279 280 281 281 283 283 283 283 283 284 285 284 284 285 286
285 285 285 285 285 285 285 284 284 283 282 281 280 279 279 279 279 279 278 278 277 277 277 277 277 277 277 278 278 279 279 280 281 282 282 282 283 283 284 284 284 284 285
285 285 285 285 285 285 285 284 284 282 281 280 279 279 278 278 278 277 276 275 275 275 275 275 275 275 276 276 277 277 278 279 279 280 281 281 282 282 283 284 285 285 285
285 285 286 285 285 284 284 284 283 282 281 280 279 278 278 277 277 275 275 275 274 274 274 274 273 273 274 274 274 275 276 278 278 279 279 280 280 282 283 284 284 285 285
286 286 286 285 284 284 283 283 283 281 280 279 278 277 277 276 274 274 274 274 273 273 273 272 272 272 272 273 274 274 275 275 276 278 279 280 280 281 282 283 284 284 285
286 286 285 285 284 283 282 282 280 279 279 278 277 276 275 274 274 273 274 273 273 272 272 272 271 271 271 272 272 273 273 274 275 276 276 277 278 279 280 280 281 282 284
286 285 285 284 283 282 281 279 279 279 278 277 276 275 274 274 273 272 272 272 272 271 270 270 270 270 270 270 270 271 272 272 273 274 275 275 275 275 276 276 277 278 279
285 285 284 283 282 280 279 279 279 278 277 276 275 274 273 272 271 271 272 271 270 270 270 270 270 270 270 271 271 272 272 273 273 273 274 274 275 275 275 276 276 277 278
285 285 284 282 280 279 278 278 278 277 276 275 274 272 272 272 271 270 271 271 270 270 270 270 270 270 271 272 274 274 274 274 274 274 274 275 275 276 276 276 277 277 277
285 284 282 280 279 278 277 277 277 276 275 273 272 272 271 271 271 270 270 271 270 271 271 271 271 272 273 274 274 274 274 274 274 274 274 274 275 275 275 275 276 276 276
284 282 280 279 278 277 276 276 275 274 273 272 272 272 271 270 271 269 270 271 272 272 273 272 272 273 274 275 276 276 276 276 276 276 276 276 275 275 275 275 275 275 275
282 281 279 278 277 276 275 274 274 273 272 272 271 270 270 270 270 268 270 272 273 273 273 273 273 274 276 275 274 274 274 275 275 275 275 275 275 274 274 274 274 274 274
281 279 277 276 275 274 274 273 272 272 271 270 268 268 269 270 269 269 270 271 272 273 273 273 273 271 271 270 270 271 271 270 271 271 272 272 273 273 274 274 274 274 273
279 277 276 275 274 273 272 271 271 271 270 268 267 267 268 269 269 269 271 272 272 273 271 270 268 267 267 267 266 267 267 267 268 268 269 270 270 271 271 272 272 272 272
277 275 274 272 272 271 271 270 270 270 269 267 268 269 269 269 269 271 273 273 273 271 270 267 266 264 263 264 264 264 265 265 266 266 267 268 269 270 271 271 271 272 272
275 273 272 271 270 270 269 269 269 267 268 269 270 271 271 270 270 271 272 272 272 269 267 264 263 262 262 263 263 263 264 264 265 265 266 267 268 270 270 272 272 272 272
273 272 271 270 269 268 268 267 266 269 267 267 267 269 269 269 270 270 271 270 268 266 264 263 262 261 262 262 262 262 263 263 264 265 266 267 268 270 271 271 272 272 273
271 271 270 269 268 267 266 266 265 264 263 266 267 265 265 268 268 269 268 266 265 265 264 262 262 262 262 262 262 262 262 263 264 265 266 267 268 269 271 272 272 272 273
269 268 268 267 266 265 264 264 264 263 263 262 264 265 264 264 265 266 264 264 263 263 262 262 262 262 261 261 262 262 262 263 264 265 266 267 268 268 270 272 272 273 273
266 266 265 265 264 263 263 262 262 262 262 262 262 264 264 263 264 264 264 263 263 263 262 261 261 262 261 261 262 262 262 263 264 265 267 267 267 268 269 270 271 273 276
264 264 263 263 262 262 262 262 262 261 261 261 262 263 262 265 264 263 263 263 262 262 261 261 261 262 261 261 262 261 262 263 264 265 267 267 266 267 268 269 270 272 274
263 262 262 262 262 261 261 261 261 261 261 261 262 262 262 262 262 262 263 263 262 262 261 261 261 262 262 262 262 262 263 263 264 265 266 266 266 266 267 268 270 271 272
262 262 262 261 261 261 261 260 260 260 260 261 261 261 261 261 262 262 262 262 262 262 262 261 262 262 262 262 262 263 264 265 266 266 266 266 266 266 267 268 269 270 272
261 261 261 260 260 260 260 260 260 259 259 260 260 260 260 261 261 261 261 261 261 261 261 261 262 262 263 263 263 264 266 267 268 267 267 267 267 267 267 267 268 269 270
261 261 260 260 260 259 259 259 259 259 259 259 260 260 261 260 260 261 260 261 261 261 261 262 262 263 263 264 264 265 266 268 268 267 268 267 267 267 267 268 268 268 269
261 260 260 260 260 259 259 259 259 259 259 260 260 260 260 259 259 260 260 260 261 261 261 262 262 263 264 264 264 265 267 267 269 268 268 268 267 267 267 267 267 267 267

GFSGL_925_thetae_036.txt.gz
Theta_e
285 285 285 285 285 285 285 284 284 283 282 282 282 281 280 280 280 279 279 279 279 279 279 279 279 279 280 280 280 280 281 281 283 283 283 283 283 283 284 284 285 285 286
285 285 285 285 285 285 284 284 283 283 282 282 281 280 280 280 279 278 278 278 278 278 278 278 278 278 278 278 278 279 279 279 280 281 281 281 282 282 283 283 284 285 285
285 285 285 285 285 284 284 284 283 282 282 281 281 280 279 279 278 277 277 277 277 277 277 277 277 276 276 276 276 276 277 277 278 279 280 280 280 281 281 282 282 283 284
285 285 285 285 284 284 284 283 282 282 282 281 281 279 279 278 277 276 276 277 277 277 276 276 275 275 275 275 275 275 275 276 276 277 278 278 278 279 281 281 282 283 284
285 285 285 285 284 284 283 282 282 281 281 280 280 279 278 277 275 276 276 276 276 276 275 275 274 274 273 273 273 274 274 275 275 275 276 276 277 277 278 279 280 281 281
285 285 285 284 284 284 283 282 281 281 280 279 278 278 277 277 276 275 275 275 275 275 274 274 273 273 273 273 272 273 273 274 274 275 275 275 276 276 276 277 277 277 280
285 285 285 285 284 283 282 281 280 280 279 278 277 276 276 276 275 274 274 274 274 274 273 273 272 272 272 272 272 272 273 273 274 274 275 275 275 275 275 276 276 277 277
286 285 285 285 284 283 282 281 279 279 277 276 275 276 275 275 274 273 273 273 273 273 272 272 272 272 272 272 273 273 273 274 274 274 274 275 275 275 275 276 276 277 278
286 286 285 284 284 282 281 280 279 278 276 275 275 276 275 274 273 272 272 273 273 273 272 272 272 272 273 274 275 275 275 275 275 275 276 276 277 277 277 277 278 278 278
287 286 285 284 283 282 280 279 278 276 275 274 274 274 274 273 272 272 271 273 273 273 273 273 274 274 274 275 275 276 277 277 276 276 276 276 276 276 276 276 276 277 277
287 286 285 284 283 281 279 278 276 275 273 273 273 273 273 272 272 271 271 273 273 274 274 274 274 274 275 275 275 274 274 275 274 275 275 275 276 276 276 276 276 276 276
286 285 284 282 280 279 277 276 275 274 273 272 272 272 271 271 271 271 271 273 273 274 274 274 274 274 272 272 272 272 272 273 271 272 273 273 274 274 275 275 275 275 275
285 283 282 280 278 276 275 274 273 272 271 271 270 270 270 269 270 270 271 272 273 273 274 273 272 270 269 269 269 269 269 269 269 270 270 271 272 272 272 272 273 273 273
283 281 279 277 275 274 273 273 272 271 270 270 270 270 270 270 270 271 271 272 273 274 273 271 269 268 267 267 267 267 267 267 267 268 269 269 269 270 270 271 271 272 273
280 278 276 275 274 273 273 272 272 272 272 270 269 269 270 271 271 271 273 273 274 274 271 270 267 266 266 267 267 266 266 267 267 267 267 267 268 269 269 270 271 272 273
277 275 274 273 273 272 271 271 271 270 270 270 271 272 272 272 272 272 272 273 273 270 268 266 266 266 266 266 266 266 266 266 266 266 266 267 268 268 269 270 271 272 273
277 276 274 273 271 270 269 269 269 268 268 268 269 270 271 271 271 271 272 272 270 268 266 265 265 265 265 265 265 265 266 266 265 266 266 266 267 268 268 270 271 272 273
274 273 272 270 269 268 268 267 266 266 266 266 267 267 266 267 269 270 270 270 267 266 264 263 263 263 264 264 264 264 264 264 264 265 265 266 267 268 268 269 270 271 272
271 270 269 268 267 266 265 265 264 264 264 264 265 266 265 265 266 267 267 265 263 263 263 262 262 262 262 262 263 263 263 263 263 264 265 266 267 268 268 268 269 270 271
268 268 267 265 264 264 263 263 263 263 263 263 263 263 263 263 263 264 264 264 263 262 262 261 261 261 261 261 261 262 262 263 263 264 265 266 267 268 268 268 269 270 271
266 265 265 264 263 262 262 262 262 262 262 262 262 262 263 263 265 264 263 263 263 263 262 262 261 261 261 261 260 261 261 262 262 263 264 265 266 267 267 268 268 269 270
264 263 263 262 261 260 261 260 261 261 261 261 261 261 263 263 263 262 262 262 262 262 262 261 261 261 261 261 260 260 260 261 263 263 263 264 265 267 267 267 268 269 270
263 262 262 261 261 260 259 259 259 259 260 260 260 260 260 260 261 261 261 262 262 262 261 261 260 261 261 261 262 262 261 263 264 264 264 265 265 266 267 267 268 268 269
262 261 261 260 260 259 259 259 259 259 258 259 259 259 259 260 260 261 261 261 261 261 261 261 261 261 262 262 263 263 263 264 265 266 266 265 266 266 266 266 267 267 269
261 261 261 260 259 259 259 259 259 258 259 259 259 259 259 260 261 261 261 261 260 260 261 261 261 262 262 262 263 264 264 265 266 267 267 267 267 267 267 266 266 267 267
261 261 260 259 259 259 259 259 259 259 259 259 259 259 259 259 260 260 260 260 260 261 261 261 261 261 262 263 264 264 265 265 266 267 268 268 267 267 267 267 267 267 267

GFSGL_925_thetae_042.txt.gz
Theta_e
288 288 288 287 287 287 286 286 285 285 284 285 285 284 284 283 282 282 282 281 281 281 280 280 280 279 279 279 278 278 278 278 278 278 278 277 277 278 277 277 277 277 278
288 287 287 287 287 286 286 285 285 285 285 285 285 284 283 283 282 281 281 281 280 280 280 279 279 278 278 277 277 277 276 276 276 276 276 276 276 276 276 276 276 277 277
287 287 287 286 286 286 286 285 285 285 285 285 284 283 283 282 282 281 280 280 280 279 279 279 278 278 277 277 276 275 275 275 275 275 275 275 275 275 275 275 275 276 277
287 287 287 286 286 286 286 285 285 285 285 284 283 283 282 281 281 280 279 279 279 279 279 278 277 277 276 276 275 275 275 275 274 274 274 274 274 275 275 275 276 276 276
287 287 287 287 286 286 285 285 285 285 284 284 283 282 281 280 280 279 279 279 279 278 278 277 277 276 276 276 276 275 275 275 274 274 275 275 275 275 275 276 276 276 275
287 287 287 287 286 286 286 285 285 284 284 283 283 282 280 280 279 279 279 278 278 277 277 277 276 276 275 275 275 275 276 276 276 275 275 276 276 276 275 276 276 276 276
288 287 287 287 286 286 285 285 284 284 283 283 282 281 281 280 279 279 279 277 277 276 276 276 275 275 274 274 274 275 275 275 276 276 276 276 276 276 276 276 276 276 277
288 287 287 287 286 286 285 285 284 283 283 282 282 281 280 280 279 278 277 277 276 276 275 275 275 274 274 274 275 276 276 276 276 276 275 275 275 276 277 277 277 277 277
287 287 287 286 286 286 285 285 284 283 282 282 281 280 280 280 278 277 276 276 276 275 275 275 275 275 275 276 277 276 275 274 274 273 274 275 275 274 274 274 274 275 276
288 288 287 287 286 286 285 285 284 283 283 281 280 280 279 279 278 276 276 275 274 274 274 274 275 276 276 276 277 276 274 273 272 273 272 270 270 270 272 272 274 275 275
290 289 288 287 287 286 285 284 284 283 281 280 279 279 278 278 277 277 275 275 274 274 274 274 274 275 276 276 276 274 273 273 273 271 269 268 268 269 269 270 271 271 271
290 289 288 287 286 285 284 283 282 281 280 279 278 277 277 277 277 276 275 275 275 274 274 274 274 274 275 275 275 273 273 272 270 268 267 267 268 269 269 268 269 269 270
289 288 287 286 285 284 283 282 280 279 278 278 276 276 276 277 276 275 274 274 275 275 275 274 275 276 274 273 271 271 271 269 268 267 267 267 268 268 267 267 268 268 269
287 286 285 284 283 282 281 280 280 279 277 276 275 275 275 274 274 274 273 273 273 274 274 274 274 274 273 271 269 269 268 267 267 267 267 267 267 267 267 267 267 268 268
285 284 283 282 281 280 279 279 278 278 277 276 276 275 274 274 274 274 273 272 273 273 274 273 273 272 271 270 268 268 267 267 267 267 267 266 266 266 266 266 267 267 268
283 282 282 281 280 278 277 276 275 275 274 275 275 274 274 273 273 274 275 275 276 276 275 273 272 271 269 268 267 267 266 266 266 266 265 265 265 265 265 266 267 267 268
282 281 280 278 277 276 274 274 273 274 275 275 275 275 276 276 275 275 275 275 276 276 273 272 271 270 268 267 266 266 265 265 265 264 264 264 264 264 264 265 266 267 267
278 278 277 276 275 274 273 272 272 271 271 271 271 271 271 272 272 273 273 274 274 273 271 271 270 268 267 266 265 265 264 264 264 263 263 263 264 263 264 264 265 266 267
276 275 274 273 273 272 272 271 270 270 269 268 267 267 268 268 269 270 271 272 272 271 270 269 269 267 266 265 264 264 263 263 263 262 262 263 263 263 263 264 264 265 266
272 272 272 271 271 270 270 269 268 267 266 266 265 265 265 265 265 265 265 266 267 267 267 267 267 266 265 264 264 263 262 262 262 262 262 262 262 262 262 263 263 264 266
271 270 270 269 268 267 266 266 265 265 264 264 263 263 265 266 266 265 265 265 265 265 265 265 264 264 264 263 263 262 262 262 262 262 262 262 262 262 263 263 264 265 266
268 267 266 266 265 265 264 264 264 263 263 262 262 262 263 263 263 263 263 264 265 265 264 264 263 263 263 262 262 261 261 261 262 262 261 261 262 263 263 263 264 265 265
266 265 264 264 264 264 263 263 262 261 261 261 261 261 261 261 261 261 261 262 262 263 263 262 262 262 263 262 261 261 260 261 261 261 261 261 262 263 264 264 264 265 265
264 264 263 263 262 262 261 261 261 261 261 261 260 260 260 260 260 260 260 261 261 261 261 261 261 262 261 261 261 261 261 260 261 261 261 260 261 264 264 265 265 266 266
263 263 262 262 261 261 261 261 260 260 260 260 260 260 260 260 260 260 260 260 260 260 261 261 261 260 260 261 261 261 260 260 260 261 262 262 262 264 265 265 266 266 266
262 262 262 261 261 261 260 260 260 260 260 260 260 260 260 260 260 260 260 260 260 260 260 260 260 260 260 260 260 260 260 261 262 262 262 262 262 264 265 266 266 266 266

GFSGL_925_thetae_045.txt.gz
Theta_e
290 290 290 289 289 289 289 287 286 285 285 285 285 285 285 285 284 284 283 282 282 281 281 281 280 280 279 279 278 277 277 277 276 277 277 276 276 275 275 275 275 275 276
290 289 289 289 288 288 287 287 286 285 285 285 284 285 285 285 285 284 283 282 281 281 281 280 280 279 279 278 277 277 276 275 275 275 275 275 275 275 274 275 275 275 275
289 288 288 288 288 287 287 286 285 285 285 284 285 285 285 285 284 283 282 282 282 281 280 280 279 279 278 277 277 276 276 275 275 275 275 274 274 274 275 275 275 275 275
288 288 288 287 287 287 286 286 285 285 285 284 285 285 285 284 283 282 282 282 281 280 280 279 279 278 277 277 276 276 276 275 275 274 274 275 275 275 275 275 276 276 276
288 288 287 287 287 286 286 285 285 285 285 285 285 284 284 284 283 282 282 281 280 280 279 279 278 278 277 277 276 276 276 276 275 275 275 275 275 276 276 276 276 276 276
288 287 287 287 286 286 286 285 285 284 284 284 284 284 284 283 283 283 282 280 280 279 279 279 278 277 276 276 276 276 276 276 277 276 276 277 276 276 276 276 275 276 276
288 287 287 287 286 286 286 285 285 284 284 284 284 283 283 283 282 281 281 280 280 279 279 278 277 277 276 275 275 275 276 276 276 277 276 275 275 274 274 275 275 275 275
287 287 287 287 287 286 286 286 285 284 284 284 283 283 283 283 282 281 280 280 279 278 278 277 276 276 275 275 275 275 276 276 276 275 274 274 274 274 273 273 273 273 273
288 287 287 287 286 286 286 286 285 284 284 284 283 283 283 283 282 280 279 278 278 278 277 276 276 275 275 275 276 277 277 276 275 274 274 274 272 272 271 271 271 271 272
288 288 288 287 287 287 286 286 285 285 285 284 283 283 282 282 281 280 278 277 277 277 276 275 275 275 276 277 277 277 276 275 274 273 273 272 270 270 270 269 270 270 270
289 288 288 288 287 287 287 286 286 285 284 283 283 283 282 281 280 279 277 277 277 276 275 275 275 275 276 276 277 277 276 275 274 273 272 270 269 269 268 268 268 268 269
290 289 288 288 287 287 286 286 285 284 283 283 282 281 280 279 279 278 276 277 277 276 276 276 275 275 275 276 277 276 275 274 272 271 269 268 268 268 268 268 267 267 268
291 290 289 288 287 287 286 285 284 283 282 281 280 279 279 278 278 277 276 276 276 277 276 276 275 276 277 277 275 274 273 271 270 268 267 267 267 267 267 267 267 267 267
290 289 288 287 287 286 285 284 284 282 281 279 278 277 277 277 277 276 276 275 276 276 276 276 275 275 275 275 273 272 271 269 268 267 267 267 267 266 266 266 266 266 266
288 287 286 285 284 283 282 282 282 281 280 279 278 277 276 275 275 275 274 274 274 274 274 274 273 273 273 273 273 271 270 268 267 267 266 266 265 265 265 265 265 265 266
286 284 284 283 282 281 280 279 277 276 276 276 276 276 276 275 275 275 275 276 276 276 275 273 272 273 273 272 271 270 268 267 266 266 265 264 264 264 264 264 264 265 265
285 283 282 281 280 279 277 276 276 275 276 277 277 277 277 277 276 276 277 277 277 277 277 277 273 273 272 271 270 269 267 267 265 264 264 263 263 263 263 263 263 264 265
282 281 281 280 279 277 276 275 274 274 274 274 274 274 272 272 273 273 274 274 273 273 273 273 272 272 272 270 268 267 266 265 264 263 263 262 262 262 261 262 262 263 264
280 279 278 277 276 275 274 273 272 272 271 270 269 269 269 268 268 268 268 268 267 266 267 267 268 269 269 268 267 266 265 264 263 262 262 262 262 261 261 262 262 262 262
276 276 275 274 273 272 272 271 270 269 268 267 266 266 265 265 265 266 265 265 265 265 265 265 265 266 266 265 265 264 264 263 263 262 262 261 261 261 261 261 262 261 262
274 272 272 271 270 270 269 268 267 266 266 265 264 264 265 266 264 263 263 262 263 263 264 265 264 265 264 264 263 263 263 262 262 261 261 261 261 261 261 261 262 262 263
271 270 269 269 268 267 266 266 265 264 264 263 263 263 263 262 262 261 261 261 261 261 262 263 263 263 263 263 262 262 262 261 261 261 260 260 260 261 261 261 262 263 263
268 268 267 266 266 265 264 264 263 263 263 263 262 261 261 261 261 261 261 261 261 261 261 261 261 261 262 262 262 261 261 261 261 260 260 260 260 261 261 261 262 263 264
266 266 265 264 264 263 263 263 263 262 262 261 261 261 260 260 260 260 260 261 260 260 260 260 260 261 261 261 261 261 260 260 260 260 259 259 260 261 261 261 263 264 264
264 263 263 263 263 263 262 262 262 261 261 260 260 260 260 260 260 260 260 260 260 260 260 260 260 260 260 260 260 260 260 260 260 260 259 259 260 261 262 262 263 264 265
263 263 263 262 262 262 262 261 261 261 260 260 260 260 260 260 260 260 260 259 259 259 259 259 259 259 259 259 259 260 260 260 260 260 260 260 261 261 262 262 263 264 265